Miami, FL

12:08 PM EST on February 09, 2016 (GMT -0500)
JA Richmond West | | Change Station
CLOSE
Current Station
Personal Weather Station
Location: Miami, FL
Elevation: 7 ft
Nearby Weather Stations

Elev 7 ft 25.61 °N, 80.43 °W | Updated 18 seconds ago

Clear
Clear
66.0 °F
Feels Like 66.0 °F
N
5.8
Wind Variable Wind from West
Gusts 5.8 mph

Today
High -- | Low -- °F
--% Chance of Precip.
Yesterday
High -- | Low -- °F
Precip. -- in
Pressure 30.09 in
Visibility 10.0 miles
Clouds Clear
Dew Point 50 °F
Humidity 57%
Rainfall 0.00 in
Snow Depth Not available.
7:01 AM 6:10 PM
New Moon, 2% visible
METAR KTMB 091653Z 34008KT 10SM CLR 17/09 A3009 RMK AO2 SLP187 T01720089
Pressure 30.09 in
Visibility 10.0 miles
Clouds Clear
Dew Point 50 °F
Humidity 57%
Rainfall 0.00 in
Snow Depth Not available.
7:01 AM 6:10 PM
New Moon, 2% visible
METAR KTMB 091653Z 34008KT 10SM CLR 17/09 A3009 RMK AO2 SLP187 T01720089

10-Day Weather Forecast

Almanac

Astronomy

Feb. 09, 2016 Rise Set
Actual Time
Civil Twilight
Nautical Twilight
Astronomical Twilight
Moon
Length of Visible Light
Length of Day
Tomorrow will be .
, % of the Moon is Illuminated

Today's Extremes

State Highs State Lows

Community

WunderPhotos

Upload Photos

1,891,631 photos uploaded!

WunderBlog® & News

Nearby

Air Quality

  Air Quality AQ Index Pollutant
Not available.

Snow Depth

Station Depth Elevation

Earthquake Activity

City Distance Mag. Time & Date
Minimum magnitude displayed is 2.5.

Coastal Water Temperatures

Place Temperature

Stations

Nearby Weather Stations

Station Location Temp. Windchill Dew Point Humidity Wind Precip. Elev Updated Type
                   

Watches & Warnings

There are currently no watches in effect.